• In Hungary
  • List of Countries
  • For 7 days
  • Water Temperature
  • Satellite Maps
  • Weather Map
  • News
  • Weather Widgets
  • user-avatar
    Login

    Hourly Weather Reno

    Today, 25 February, Sunday

    Time Temperature Precipitation Wind Pressure Humidity
    00:00 -4°C° 0 mm 2 mps 647 mmHg 85%
    01:00 -2°C° 0 mm 1 mps 647 mmHg 85%
    02:00 -2°C° 0 mm 1 mps 647 mmHg 84%
    03:00 -2°C° 0 mm 1 mps 647 mmHg 83%
    04:00 -2°C° 0 mm 1 mps 647 mmHg 82%
    05:00 -2°C° 0 mm 1 mps 647 mmHg 79%
    06:00 -2°C° 0 mm 1 mps 647 mmHg 77%
    07:00 -2°C° 0 mm 1 mps 646 mmHg 74%
    08:00 0°C° 0 mm 1 mps 647 mmHg 66%
    09:00 +2°C° 0 mm 1 mps 647 mmHg 58%
    10:00 +4°C° 0 mm 1 mps 647 mmHg 50%
    11:00 +4°C° 0 mm 2 mps 647 mmHg 49%
    12:00 +5°C° 0 mm 2 mps 646 mmHg 47%
    13:00 +7°C° 0 mm 2 mps 646 mmHg 46%
    14:00 +5°C° 0 mm 3 mps 645 mmHg 49%
    15:00 +5°C° 0 mm 4 mps 645 mmHg 52%
    16:00 +5°C° 0 mm 5 mps 644 mmHg 55%
    17:00 +3°C° 0 mm 4 mps 644 mmHg 62%
    18:00 +1°C° 0 mm 4 mps 643 mmHg 68%
    19:00 0°C° 0 mm 3 mps 643 mmHg 75%
    20:00 -1°C° 0 mm 4 mps 642 mmHg 74%
    21:00 -2°C° 0 mm 4 mps 642 mmHg 74%
    22:00 -2°C° 0 mm 4 mps 642 mmHg 73%
    23:00 -2°C° 0 mm 5 mps 641 mmHg 71%

    Tomorrow, 26 February, Monday

    Time Temperature Precipitation Wind Pressure Humidity
    00:00 -4°C° 0 mm 5 mps 641 mmHg 68%
    01:00 -4°C° 0 mm 6 mps 640 mmHg 66%
    02:00 -4°C° 0.1 mm 5 mps 640 mmHg 67%
    03:00 -4°C° 0.1 mm 5 mps 639 mmHg 68%
    04:00 -4°C° 0.1 mm 5 mps 639 mmHg 69%
    05:00 -4°C° 0.7 mm 5 mps 639 mmHg 73%
    06:00 -3°C° 0.7 mm 4 mps 638 mmHg 77%
    07:00 -2°C° 0.7 mm 3 mps 638 mmHg 81%
    08:00 -3°C° 1 mm 4 mps 639 mmHg 82%
    09:00 -2°C° 1 mm 4 mps 639 mmHg 83%
    10:00 -2°C° 1 mm 4 mps 639 mmHg 85%
    11:00 -3°C° 0.9 mm 4 mps 639 mmHg 86%
    12:00 -3°C° 0.9 mm 4 mps 639 mmHg 87%
    13:00 -4°C° 0.9 mm 4 mps 639 mmHg 88%
    14:00 -4°C° 0.5 mm 4 mps 639 mmHg 88%
    15:00 -5°C° 0.5 mm 4 mps 639 mmHg 87%
    16:00 -6°C° 0.5 mm 5 mps 639 mmHg 86%
    17:00 -7°C° 0.3 mm 4 mps 639 mmHg 87%
    18:00 -7°C° 0.3 mm 4 mps 639 mmHg 88%
    19:00 -8°C° 0.3 mm 4 mps 640 mmHg 88%
    20:00 -8°C° 0.1 mm 4 mps 640 mmHg 87%
    21:00 -9°C° 0.1 mm 4 mps 640 mmHg 87%
    22:00 -8°C° 0.1 mm 3 mps 640 mmHg 86%
    23:00 -9°C° 0 mm 3 mps 640 mmHg 86%

    Day after tomorrow, 27 February, Tuesday

    Time Temperature Precipitation Wind Pressure Humidity
    00:00 -10°C° 0 mm 3 mps 640 mmHg 85%
    01:00 -9°C° 0 mm 2 mps 641 mmHg 85%
    02:00 -10°C° 0 mm 2 mps 641 mmHg 86%
    03:00 -10°C° 0 mm 2 mps 641 mmHg 86%
    04:00 -10°C° 0 mm 2 mps 641 mmHg 87%
    05:00 -10°C° 0 mm 2 mps 641 mmHg 87%
    06:00 -10°C° 0 mm 2 mps 642 mmHg 87%
    07:00 -10°C° 0 mm 2 mps 642 mmHg 87%
    08:00 -9°C° 0 mm 2 mps 643 mmHg 80%
    09:00 -7°C° 0 mm 2 mps 643 mmHg 73%
    10:00 -5°C° 0 mm 2 mps 644 mmHg 66%
    11:00 -5°C° 0 mm 2 mps 643 mmHg 62%
    12:00 -4°C° 0 mm 2 mps 643 mmHg 58%
    13:00 -3°C° 0 mm 2 mps 643 mmHg 54%
    14:00 -1°C° 0 mm 1 mps 643 mmHg 54%
    15:00 -1°C° 0 mm 1 mps 643 mmHg 54%
    16:00 0°C° 0 mm 1 mps 643 mmHg 54%
    17:00 -2°C° 0 mm 1 mps 643 mmHg 59%
    18:00 -3°C° 0 mm 1 mps 643 mmHg 64%
    19:00 -5°C° 0 mm 0 mps 643 mmHg 69%
    20:00 -4°C° 0 mm 1 mps 644 mmHg 68%
    21:00 -4°C° 0 mm 1 mps 644 mmHg 67%
    22:00 -4°C° 0 mm 1 mps 644 mmHg 66%
    23:00 -4°C° 0 mm 1 mps 644 mmHg 64%

    28 February, Wednesday

    Time Temperature Precipitation Wind Pressure Humidity
    00:00 -4°C° 0 mm 1 mps 644 mmHg 62%
    01:00 -4°C° 0 mm 1 mps 643 mmHg 60%
    02:00 -3°C° 0 mm 1 mps 643 mmHg 60%
    03:00 -3°C° 0 mm 1 mps 643 mmHg 60%
    04:00 -3°C° 0 mm 1 mps 643 mmHg 59%
    05:00 -2°C° 0 mm 1 mps 643 mmHg 61%
    06:00 -4°C° 0 mm 2 mps 643 mmHg 63%
    07:00 -3°C° 0 mm 2 mps 643 mmHg 64%
    08:00 -2°C° 0 mm 2 mps 643 mmHg 64%
    09:00 -1°C° 0 mm 2 mps 643 mmHg 63%
    10:00 +2°C° 0 mm 2 mps 644 mmHg 62%
    11:00 +2°C° 0 mm 3 mps 643 mmHg 64%
    12:00 +2°C° 0 mm 3 mps 643 mmHg 67%
    13:00 +3°C° 0 mm 4 mps 643 mmHg 69%
    14:00 +3°C° 0 mm 4 mps 642 mmHg 70%
    15:00 +3°C° 0 mm 4 mps 642 mmHg 71%
    16:00 +3°C° 0 mm 4 mps 641 mmHg 72%
    17:00 +1°C° 0 mm 4 mps 641 mmHg 75%
    18:00 -1°C° 0 mm 4 mps 640 mmHg 79%
    19:00 -2°C° 0 mm 4 mps 640 mmHg 82%
    20:00 -2°C° 0 mm 4 mps 640 mmHg 82%
    21:00 -2°C° 0 mm 4 mps 639 mmHg 81%
    22:00 -1°C° 0 mm 5 mps 639 mmHg 81%
    23:00 -1°C° 0.2 mm 5 mps 639 mmHg 81%

    1 March, Thursday

    Time Temperature Precipitation Wind Pressure Humidity
    00:00 -2°C° 0.2 mm 6 mps 638 mmHg 80%
    01:00 -2°C° 0.2 mm 6 mps 637 mmHg 79%
    02:00 -2°C° 0.6 mm 6 mps 637 mmHg 80%
    03:00 -2°C° 0.6 mm 6 mps 636 mmHg 80%
    04:00 -2°C° 0.6 mm 7 mps 636 mmHg 81%
    05:00 -2°C° 1 mm 6 mps 635 mmHg 83%
    06:00 -2°C° 1 mm 6 mps 635 mmHg 85%
    07:00 -1°C° 1 mm 5 mps 635 mmHg 87%
    08:00 -2°C° 0.9 mm 7 mps 635 mmHg 84%
    09:00 -1°C° 0.9 mm 8 mps 635 mmHg 81%
    10:00 -2°C° 0.9 mm 10 mps 635 mmHg 78%
    11:00 -2°C° 0.2 mm 11 mps 635 mmHg 76%
    12:00 -2°C° 0.2 mm 12 mps 635 mmHg 73%
    13:00 -1°C° 0.2 mm 13 mps 635 mmHg 71%
    14:00 -2°C° 0.3 mm 12 mps 634 mmHg 72%
    15:00 -2°C° 0.3 mm 12 mps 634 mmHg 73%
    16:00 -3°C° 0.3 mm 11 mps 634 mmHg 74%
    17:00 -4°C° 0.4 mm 10 mps 634 mmHg 76%
    18:00 -4°C° 0.4 mm 10 mps 634 mmHg 79%
    19:00 -5°C° 0.4 mm 9 mps 634 mmHg 81%
    20:00 -5°C° 0.7 mm 8 mps 634 mmHg 82%
    21:00 -5°C° 0.7 mm 8 mps 634 mmHg 84%
    22:00 -5°C° 0.7 mm 8 mps 635 mmHg 85%
    23:00 -5°C° 1 mm 8 mps 635 mmHg 86%

    2 March, Friday

    Time Temperature Precipitation Wind Pressure Humidity
    00:00 -6°C° 1 mm 8 mps 635 mmHg 87%
    01:00 -6°C° 1 mm 7 mps 635 mmHg 88%
    02:00 -6°C° 1 mm 7 mps 635 mmHg 89%
    03:00 -6°C° 1 mm 7 mps 635 mmHg 90%
    04:00 -6°C° 1 mm 7 mps 635 mmHg 90%
    05:00 -5°C° 0.5 mm 6 mps 636 mmHg 89%
    06:00 -6°C° 0.5 mm 5 mps 637 mmHg 89%
    07:00 -6°C° 0.5 mm 5 mps 637 mmHg 88%
    08:00 -5°C° 0.2 mm 5 mps 638 mmHg 84%
    09:00 -5°C° 0.2 mm 6 mps 638 mmHg 80%
    10:00 -5°C° 0.2 mm 6 mps 638 mmHg 77%
    11:00 -4°C° 0.2 mm 6 mps 638 mmHg 77%
    12:00 -4°C° 0.2 mm 6 mps 638 mmHg 77%
    13:00 -3°C° 0.2 mm 6 mps 638 mmHg 77%
    14:00 -2°C° 0.4 mm 5 mps 638 mmHg 79%
    15:00 -4°C° 0.4 mm 5 mps 638 mmHg 81%
    16:00 -3°C° 0.4 mm 4 mps 638 mmHg 82%
    17:00 -2°C° 0.6 mm 3 mps 638 mmHg 86%
    18:00 -3°C° 0.6 mm 2 mps 638 mmHg 90%
    19:00 -3°C° 0.6 mm 2 mps 638 mmHg 94%
    20:00 -4°C° 0.3 mm 2 mps 638 mmHg 93%
    21:00 -4°C° 0.3 mm 2 mps 638 mmHg 93%
    22:00 -4°C° 0.3 mm 2 mps 638 mmHg 93%
    23:00 -5°C° 0.7 mm 3 mps 638 mmHg 94%
    Show more